Location: Unspecified
(0.0000°N, 0.0000°E)
Time: 21:49:08
(UTC+00:00)

Tiangong 2 - Pass Details

Date: 25 May 2017
Orbit: 380 x 389 km, 42.8° (Epoch: 24 May)

Event Time Altitude Azimuth Distance (km) Brightness Sun altitude
Exits shadow 05:19:50 10° 271° (W) 1,373 3.3 -8.7°
Maximum altitude 05:22:03 18° 225° (SW) 995 2.6 -8.1°
Drops below altitude 10° 05:24:20 10° 178° (S) 1,386 3.7 -7.6°
Sets 05:26:48 0° 158° (SSE) 2,241 5.0 -7.0°
